Helicity
23 18 7 -1 6 9 -1 -1 -1 5 22 8 1 3 3 1 11 14 16 19 16 14 17 17 14 12 10 9 10 12 21 35 40 39 31 25 25 27 29 23 41 46 32
33 33 11 6 10 9 4 1 1 3 10 18 22 9 11 4 15 17 18 20 21 20 19 18 18 16 15 11 11 15 13 6 11 11 -3 2 28 30 32 23 39 40 30
49 30 19 11 14 12 6 3 3 4 8 17 28 35 25 18 17 22 19 22 25 26 26 26 23 21 17 14 9 7 6 3 2 -2 -10 1 50 38 22 24 24 22 23
55 35 31 16 14 16 17 15 13 19 22 26 33 37 39 37 34 25 22 30 32 36 36 34 33 30 23 16 12 9 5 3 1 -8 5 16 18 72 29 22 20 17 16
43 52 48 20 17 24 25 21 24 26 29 28 33 38 41 45 44 43 41 27 40 40 41 41 40 37 30 25 18 16 13 9 7 -4 6 15 17 78 38 11 15 19 15
52 85 60 41 44 52 62 66 69 49 47 42 33 37 42 41 41 44 53 57 39 43 41 40 40 41 42 39 35 27 23 23 22 10 18 28 33 59 34 16 14 28 30
86 66 80 97 75 77 77 74 76 78 75 70 70 80 81 73 72 71 62 57 51 43 33 32 36 38 39 39 38 35 32 40 27 10 16 35 35 80 41 30 27 35 24
62 49 59 90 94 96 96 89 84 81 76 76 68 65 66 64 60 60 58 59 61 64 64 62 48 38 37 43 44 43 44 49 31 27 35 47 52 67 39 30 26 27 38
91 62 56 70 76 93 93 81 78 73 70 62 59 50 47 49 52 56 58 71 70 71 72 76 72 66 74 53 46 51 67 79 54 45 40 63 59 74 45 32 27 18 14
90 101 61 58 60 57 51 55 58 60 56 51 45 39 23 16 40 45 39 86 69 69 69 70 72 74 75 69 64 74 73 92 85 69 72 73 104 80 50 30 24 25 24
105 74 59 54 49 39 38 37 35 44 34 32 35 38 24 42 38 51 89 59 52 64 68 71 75 74 69 56 77 74 98 104 95 94 102 98 106 74 55 31 30 28 25
87 65 61 57 50 43 40 41 42 40 42 41 43 39 39 42 46 38 38 49 46 60 59 73 77 77 75 95 122 98 77 77 103 101 126 111 108 84 58 32 36 26 28
86 70 64 57 50 43 46 38 47 45 47 47 51 48 47 46 57 48 58 72 78 78 93 116 105 111 127 114 115 107 114 113 125 133 107 127 101 90 77 64 57 52 37
78 71 55 53 50 51 44 59 53 58 55 63 59 52 53 55 57 63 70 76 85 99 108 116 124 118 104 87 87 88 87 96 115 122 123 135 114 90 80 83 90 86 84
75 63 52 56 55 59 62 56 63 65 68 63 61 62 65 60 67 73 76 87 102 111 110 120 108 104 101 90 84 80 79 73 75 100 108 115 109 84 68 62 75 82 83
71 57 53 59 68 72 74 71 66 70 67 66 67 69 64 69 70 77 88 98 107 107 105 109 107 99 101 96 92 85 76 76 64 71 86 87 96 87 55 56 65 76 82
56 64 61 75 79 75 78 74 70 68 63 70 72 71 70 67 68 76 81 87 94 115 90 96 97 107 100 89 70 68 65 59 64 57 62 61 56 56 36 22 36 56 69
58 52 76 85 79 80 85 75 72 69 62 73 75 71 69 63 61 63 64 74 90 83 83 84 92 92 82 69 63 54 39 32 25 26 32 32 34 36 41 21 22 30 40
55 71 77 76 89 92 80 75 67 64 67 76 69 66 68 52 55 55 64 72 75 69 67 76 76 57 59 44 30 20 20 29 30 32 23 22 26 29 33 37 15 22 17
67 83 88 97 97 92 84 70 59 67 76 83 72 64 55 53 58 58 60 72 84 75 63 73 54 38 30 30 24 18 28 26 16 15 16 8 12 15 16 17 22 33 33
72 85 89 99 105 97 83 79 79 91 91 73 81 64 49 49 47 51 66 74 85 80 68 52 41 29 33 31 31 35 14 34 -2 10 11 10 14 14 4 7 18 33 47
74 81 99 113 112 105 98 94 99 100 94 89 68 48 50 40 50 50 66 78 73 72 62 53 41 33 30 33 47 35 44 40 35 15 6 7 15 5 8 0 -4 4 27
89 102 112 114 113 97 91 92 85 77 67 51 54 64 59 46 41 43 62 68 60 54 49 42 34 28 31 32 39 37 39 46 19 24 20 5 8 2 1 -9 -6 9 21
120 124 119 111 100 91 85 80 66 65 69 67 71 56 45 32 34 40 43 49 48 42 34 31 24 21 19 23 28 26 21 25 15 0 2 3 -6 -6 8 9 8 14 31
108 97 92 88 83 79 70 59 55 56 58 60 59 45 38 37 40 47 53 42 43 32 25 17 16 15 12 8 14 14 16 12 6 27 10 8 7 10 7 17 13 27 47
85 77 78 77 72 70 68 56 53 46 48 62 61 64 54 55 61 66 63 39 25 27 30 22 14 17 17 13 9 11 18 21 17 24 27 11 3 -8 7 17 31 35 51
Wind_Speed
22 23 24 27 29 25 27 29 33 31 34 37 44 39 37 33 37 39 40 43 45 47 47 47 47 47 46 45 44 42 40 40 39 40 40 40 39 39 40 40 43 40 40
25 25 23 21 25 27 28 30 30 30 32 33 37 33 38 38 42 39 39 40 42 43 43 45 45 45 45 44 42 41 40 41 42 42 42 37 36 37 37 38 40 38 38
24 24 25 19 23 26 26 30 33 34 36 37 40 42 44 39 42 37 37 37 38 40 40 42 43 43 43 43 42 40 39 39 41 42 38 30 32 35 36 35 35 36 37
18 21 22 19 20 25 29 31 32 34 37 39 41 43 43 43 43 43 39 31 34 36 37 38 40 40 40 41 41 40 39 38 40 42 36 33 35 30 30 30 32 35 37
12 18 17 19 22 25 29 32 34 36 38 40 41 42 42 42 43 45 47 34 33 34 34 34 35 36 37 38 39 40 39 39 41 41 41 38 39 33 34 34 25 28 31
11 14 16 19 22 27 30 33 35 37 39 41 42 43 43 43 44 46 47 46 36 33 31 30 30 31 32 33 34 35 36 36 38 33 34 36 35 36 39 40 29 33 33
13 14 17 20 24 28 31 34 36 39 41 42 44 44 45 45 46 47 47 45 44 42 34 28 27 29 29 29 30 31 31 32 30 27 25 25 24 32 34 28 30 26 29
12 15 18 21 26 29 32 35 38 40 42 44 44 45 44 44 44 45 45 46 46 46 45 45 41 35 32 31 27 24 24 27 30 26 27 31 31 33 33 35 29 24 21
14 16 19 22 26 30 33 37 39 41 43 43 44 45 44 44 44 45 45 47 49 49 49 49 48 49 52 45 42 41 31 27 30 35 38 34 30 28 34 35 37 33 33
18 20 21 24 27 31 34 38 40 42 43 43 43 45 43 37 43 41 44 51 53 52 52 52 52 53 54 52 48 48 50 37 33 34 38 40 37 36 41 42 40 40 39
19 21 23 26 29 32 35 39 38 42 40 39 40 42 43 44 48 51 50 54 54 53 54 50 52 54 54 52 37 40 49 43 41 41 40 41 45 44 44 45 44 43 42
19 21 24 27 31 35 37 40 40 40 41 42 44 47 47 50 51 51 49 51 51 50 53 45 50 49 45 47 52 38 45 45 42 41 45 44 47 44 46 48 50 44 43
16 20 24 28 33 36 39 39 39 39 42 43 46 50 52 53 54 55 57 57 59 55 56 56 56 53 55 54 55 53 54 54 52 51 48 38 40 45 49 53 54 54 50
17 20 24 28 34 38 38 41 40 41 43 44 46 50 53 54 57 59 60 62 60 59 61 58 59 59 59 58 56 56 56 55 54 53 52 51 41 46 49 53 54 54 56
18 20 24 29 33 37 41 41 42 42 43 44 45 50 55 57 60 62 63 63 62 62 61 62 61 61 61 60 59 57 56 53 52 52 51 50 44 46 51 53 53 54 55
19 20 24 29 35 38 41 42 43 44 45 45 47 51 56 59 61 64 65 64 64 62 63 63 61 61 59 57 58 56 54 52 51 51 50 51 52 47 49 52 53 57 64
23 25 29 33 35 37 40 42 44 45 45 45 48 53 58 61 64 65 65 64 63 64 64 62 60 58 57 54 54 53 52 51 50 49 48 47 49 49 42 43 53 60 65
24 25 28 31 32 37 40 43 46 45 45 46 49 54 59 63 64 65 64 64 64 62 60 59 58 56 53 53 52 52 51 48 45 45 43 44 46 52 56 48 44 56 59
27 28 29 29 34 38 41 44 45 45 45 47 50 56 60 62 63 63 63 62 62 57 55 53 53 52 52 52 52 51 47 44 41 41 46 50 50 51 52 53 49 52 50
30 30 31 32 36 39 41 43 44 46 45 50 52 57 61 61 63 62 59 58 55 53 51 51 50 49 50 51 54 48 43 38 38 46 47 48 49 51 52 54 53 53 50
32 31 30 33 35 38 43 48 49 50 52 52 56 59 61 60 60 59 56 55 52 51 51 48 48 50 49 50 50 52 38 37 37 43 45 49 50 53 53 50 50 53 54
34 31 31 33 35 39 44 47 47 52 52 55 56 58 58 57 56 56 54 52 50 49 48 48 49 49 47 49 50 47 42 33 44 37 45 49 53 53 52 50 51 52 55
37 34 32 33 36 39 43 46 48 49 50 52 56 59 56 55 54 51 51 49 49 48 48 46 45 45 48 47 47 44 43 42 54 39 44 51 54 53 52 52 52 53 53
38 34 33 34 37 42 43 45 47 52 56 56 59 58 56 52 50 49 48 47 47 44 44 43 41 43 45 47 47 41 40 44 46 48 49 52 57 55 52 53 53 53 54
34 33 34 37 41 43 43 44 50 52 54 55 56 56 53 50 47 46 45 43 42 39 38 40 42 44 45 47 45 44 44 43 39 42 54 58 58 54 53 50 52 53 53
35 37 39 43 44 44 45 48 50 54 55 56 56 55 52 47 42 39 37 36 35 34 35 40 44 44 45 46 42 41 41 41 44 44 48 57 57 53 55 48 49 51 52
Wind_Direction
45 38 25 24 25 9 10 15 21 2 11 14 49 92 96 105 79 69 63 54 44 39 38 32 27 25 23 19 16 12 9 0 357 359 6 10 9 7 6 357 340 10 7
66 52 29 10 18 19 18 19 11 357 358 349 358 352 72 64 37 53 49 44 37 32 31 26 24 23 22 21 22 22 18 4 354 346 345 4 14 12 13 6 355 10 9
63 52 44 7 16 20 8 15 15 12 2 3 8 7 21 44 29 44 41 37 33 28 27 24 21 19 16 16 16 15 13 8 4 0 8 27 14 7 2 3 7 10 10
47 54 39 11 0 10 16 12 5 5 3 4 10 16 18 18 18 15 21 38 32 27 24 21 18 15 13 10 8 7 5 4 359 356 8 8 4 17 15 13 8 1 359
23 39 17 11 3 7 9 14 21 14 11 13 14 13 15 16 13 6 360 25 25 23 21 19 17 14 11 7 4 1 359 354 348 347 348 352 347 0 359 354 8 9 8
355 4 356 354 359 6 4 1 359 9 8 9 10 9 9 10 7 2 358 359 14 17 17 18 16 15 12 10 7 4 1 358 352 356 352 349 349 347 342 338 348 346 350
354 354 356 4 4 5 7 3 2 2 3 4 3 2 0 360 357 354 355 358 359 360 8 11 10 7 6 4 2 1 359 358 359 2 2 3 3 353 353 355 350 348 348
360 2 358 0 6 2 1 2 4 5 6 4 5 5 5 4 3 360 358 357 355 354 354 352 353 354 353 351 353 354 354 353 351 352 350 345 343 341 341 342 344 345 343
321 337 345 357 7 4 359 359 2 4 5 5 3 2 3 0 359 357 355 353 349 348 346 345 344 342 336 337 337 336 336 335 335 335 333 335 335 336 334 331 331 331 330
312 316 337 351 356 354 359 359 3 4 4 5 3 358 359 4 357 357 353 345 343 342 341 340 338 335 333 332 331 329 326 326 322 322 322 323 327 327 325 324 322 321 321
308 315 333 344 348 352 355 359 10 6 10 10 9 2 359 354 348 345 345 340 339 339 338 339 337 333 331 330 329 329 327 322 320 319 319 318 317 319 320 319 318 316 315
305 320 330 339 339 346 351 358 6 10 8 7 1 356 353 347 344 344 345 344 343 343 339 341 338 337 335 333 329 328 328 325 321 318 315 314 314 314 315 316 316 314 312
315 327 335 336 340 345 351 3 9 11 5 3 358 352 347 343 341 340 339 339 337 339 339 337 336 334 331 329 326 324 322 320 319 318 318 315 314 313 313 313 313 313 312
311 330 338 342 340 345 359 1 5 5 2 1 356 352 346 343 340 337 335 334 336 337 335 336 334 331 329 326 325 323 321 320 319 319 318 319 319 316 315 314 313 312 311
311 328 337 338 344 351 354 359 2 3 2 359 357 350 344 341 337 334 334 334 335 335 334 333 333 331 329 326 324 322 322 322 321 320 319 319 320 318 316 314 312 311 310
312 329 339 340 342 347 352 358 359 359 358 357 353 347 343 338 336 333 333 333 333 334 333 333 332 331 330 329 326 325 325 324 323 322 322 321 320 320 318 317 314 309 303
307 315 323 331 339 348 354 356 355 355 355 354 351 345 340 336 334 333 333 333 334 334 333 333 334 334 333 332 329 328 328 328 328 329 330 329 327 325 327 325 317 310 304
309 320 329 338 345 347 350 351 350 352 353 352 350 344 339 336 334 334 334 335 335 335 336 336 337 337 338 336 334 333 332 334 337 338 339 337 332 323 319 326 328 319 312
309 319 329 338 341 343 346 347 349 350 351 350 347 342 338 336 336 335 336 337 339 340 342 343 343 342 341 338 336 336 339 341 347 347 338 329 328 328 328 324 328 325 326
310 319 327 333 336 340 344 345 346 347 349 347 345 340 337 336 336 337 339 340 344 345 345 346 345 345 341 339 337 341 346 352 352 339 337 337 336 333 329 322 327 330 332
310 317 324 329 335 339 340 340 340 342 343 343 341 337 336 337 338 339 341 342 345 344 343 346 346 343 342 343 341 340 350 356 349 343 344 341 339 332 330 334 336 335 336
309 318 324 328 333 336 337 339 341 340 341 339 338 337 338 340 341 341 341 342 343 343 343 344 342 341 341 344 340 340 344 354 337 345 345 341 334 335 338 342 339 340 342
310 318 323 328 331 334 336 338 338 338 339 339 337 337 339 340 341 343 342 341 340 340 339 340 342 341 337 340 346 346 343 340 323 343 344 338 335 337 343 340 343 349 353
313 320 325 328 330 332 334 335 336 335 335 336 336 337 338 340 342 343 343 341 339 341 340 341 343 339 336 334 335 343 341 333 331 329 332 332 333 332 345 347 351 358 1
322 325 327 328 328 330 332 334 333 333 334 336 337 338 340 340 342 344 346 346 346 347 347 342 336 332 329 326 331 334 335 335 343 342 328 324 331 334 346 355 358 2 7
326 326 326 325 326 329 331 330 330 330 332 334 335 337 339 343 348 351 353 355 355 355 351 339 331 330 331 332 337 336 335 336 335 343 340 330 331 336 338 358 3 5 11